AJ5TT Weather Reports


Display with metric or nautical units.
time (UTC)temp
F
wind
direction
speed
MPH
gust
MPH
rain 1hr
in
rain 24hr
in
rain mn
in
humidity
%
barometer
mb
20260508104559 70 37 3.0 7.0 0.00 0.00 0.00 91 1012.8
20260508103104 70 43 3.0 8.0 0.00 0.00 0.00 91 1013.0
20260508101557 71 39 5.0 10.0 0.00 0.00 0.00 91 1013.2
20260508100100 72 52 1.0 4.0 0.00 0.00 0.00 91 1012.9
20260508094553 72 24 1.0 3.0 0.00 0.00 0.00 91 1013.3
20260508093055 72 45 1.0 4.0 0.00 0.00 0.00 91 1013.3
20260508091554 72 66 1.0 3.0 0.00 0.00 0.00 90 1013.3
20260508090054 72 61 0.0 2.0 0.00 0.00 0.00 90 1013.3
20260508084557 72 291 0.0 3.0 0.00 0.00 0.00 88 1013.1
20260508083053 73 0 0.0 2.0 0.00 0.00 0.00 87 1013.4
20260508081601 73 256 1.0 2.0 0.00 0.00 0.00 86 1013.3
20260508080053 73 290 1.0 3.0 0.00 0.00 0.00 84 1013.4
20260508074556 74 47 0.0 2.0 0.00 0.00 0.00 83 1013.1
20260508073103 74 0 0.0 2.0 0.00 0.00 0.00 84 1013.5
20260508071553 74 0 1.0 4.0 0.00 0.00 0.00 84 1013.8
20260508070101 74 123 1.0 8.0 0.00 0.00 0.00 83 1013.6
20260508064606 74 52 2.0 6.0 0.00 0.00 0.00 83 1013.5
20260508063055 74 41 2.0 4.0 0.00 0.00 0.00 83 1013.2
20260508061600 74 20 0.0 2.0 0.00 0.00 0.00 83 1013.9
20260508060100 74 0 0.0 2.0 0.00 0.00 0.00 82 1014.1
20260508054623 74 53 0.0 3.0 0.00 0.00 0.00 81 1013.8
20260508053056 74 76 3.0 7.0 0.00 0.00 0.00 81 1013.3
20260508051557 74 20 0.0 3.0 0.00 0.00 0.00 81 1013.4
20260508050058 74 46 1.0 5.0 0.00 0.00 0.00 80 1013.4
20260508044555 74 360 1.0 3.0 0.00 0.00 0.00 80 1013.2
20260508043057 74 36 1.0 3.0 0.00 0.00 0.00 79 1013.7
20260508041554 74 65 1.0 3.0 0.00 0.00 0.00 78 1014.1
20260508040106 75 331 0.0 5.0 0.00 0.00 0.00 78 1014.9
20260508034556 75 63 2.0 6.0 0.00 0.00 0.00 77 1014.9
20260508033057 75 65 2.0 5.0 0.00 0.00 0.00 77 1014.7
20260508031603 75 82 3.0 8.0 0.00 0.00 0.00 75 1014.5
20260508030104 75 63 2.0 7.0 0.00 0.00 0.00 75 1014.3
20260508024553 75 53 2.0 6.0 0.00 0.00 0.00 75 1014.4
20260508023054 75 51 2.0 6.0 0.00 0.00 0.00 74 1014.2
20260508021601 75 31 2.0 8.0 0.00 0.00 0.00 74 1014.6
20260508020059 75 55 2.0 9.0 0.00 0.00 0.00 75 1014.1
20260508014554 75 57 3.0 6.0 0.00 0.00 0.00 77 1014.5
20260508013057 75 67 2.0 5.0 0.00 0.00 0.00 77 1014.3
20260508011606 75 28 1.0 4.0 0.00 0.00 0.00 77 1014.1
20260508010105 76 51 3.0 5.0 0.00 0.00 0.00 75 1014.0
20260508004553 76 47 2.0 8.0 0.00 0.00 0.00 74 1013.9
20260508003111 76 63 3.0 10.0 0.00 0.00 0.00 75 1013.7
20260508001553 77 46 3.0 6.0 0.00 0.00 0.00 75 1013.9
20260508000116 77 39 3.0 9.0 0.00 0.00 0.00 74 1013.8
20260507234555 78 53 3.0 7.0 0.00 0.00 0.00 72 1013.8
20260507233055 78 61 1.0 11.0 0.00 0.00 0.00 73 1013.9
20260507231559 78 71 4.0 6.0 0.00 0.00 0.00 72 1013.8
20260507230055 78 65 3.0 9.0 0.00 0.00 0.00 72 1013.8
20260507224557 78 55 4.0 9.0 0.00 0.00 0.00 70 1013.9
20260507223053 79 38 4.0 9.0 0.00 0.00 0.00 69 1013.7
20260507221602 80 36 3.0 8.0 0.00 0.00 0.00 69 1013.8
20260507220055 80 132 3.0 8.0 0.00 0.00 0.00 69 1013.9
20260507214557 80 47 4.0 10.0 0.00 0.00 0.00 69 1013.7
20260507213058 78 19 4.0 9.0 0.00 0.00 0.00 73 1013.8
20260507211601 77 323 4.0 9.0 0.00 0.00 0.00 72 1014.1
20260507210056 78 17 6.0 10.0 0.00 0.00 0.00 72 1014.2
20260507204554 77 40 4.0 8.0 0.00 0.00 0.00 72 1014.5
20260507203056 76 43 3.0 12.0 0.00 0.00 0.00 72 1014.6
20260507201557 76 15 7.0 12.0 0.00 0.00 0.00 72 1014.7
20260507200103 76 27 3.0 10.0 0.00 0.00 0.00 73 1015.0
20260507194557 75 30 5.0 9.0 0.00 0.00 0.00 73 1015.0
20260507193057 74 10 2.0 6.0 0.00 0.00 0.00 73 1015.3
20260507191555 74 46 3.0 9.0 0.00 0.00 0.00 74 1015.5
20260507190059 74 32 4.0 11.0 0.00 0.00 0.00 74 1015.5
20260507184555 72 34 3.0 8.0 0.00 0.00 0.00 78 1015.7
20260507183056 71 19 5.0 11.0 0.00 0.00 0.00 77 1015.8
20260507181554 70 14 5.0 11.0 0.00 0.00 0.00 77 1016.1
20260507180106 71 28 5.0 11.0 0.00 0.00 0.00 78 1016.0
20260507174625 70 360 7.0 13.0 0.00 0.00 0.00 79 1016.3
20260507173055 68 15 5.0 12.0 0.00 0.00 0.00 80 1016.4
20260507171611 68 24 4.0 10.0 0.00 0.00 0.00 80 1016.5
20260507170100 67 17 6.0 11.0 0.00 0.00 0.00 80 1016.5
20260507164556 67 26 5.0 12.0 0.00 0.00 0.00 81 1016.3
20260507163055 66 9 4.0 11.0 0.00 0.00 0.00 82 1016.5
20260507161557 66 352 5.0 12.0 0.00 0.00 0.00 82 1016.4
20260507160116 65 57 6.0 11.0 0.00 0.00 0.00 83 1016.3
20260507154554 65 48 6.0 11.0 0.00 0.00 0.00 83 1016.6
20260507153053 65 26 6.0 11.0 0.00 0.00 0.00 83 1016.6
20260507151559 65 9 6.0 12.0 0.00 0.00 0.00 83 1016.7
20260507150056 65 313 5.0 15.0 0.00 0.00 0.00 84 1016.4
20260507144556 65 55 8.0 12.0 0.00 0.00 0.00 82 1016.4
20260507143101 66 32 7.0 11.0 0.00 0.00 0.00 83 1016.0
20260507141612 66 22 5.0 11.0 0.00 0.00 0.00 84 1016.1
20260507140113 65 24 7.0 13.0 0.00 0.00 0.00 84 1015.7
20260507134600 65 29 6.0 13.0 0.00 0.00 0.00 85 1016.2
20260507133104 65 46 8.0 12.0 0.00 0.00 0.00 84 1016.2
20260507131617 66 13 4.0 10.0 0.00 0.00 0.00 84 1016.2
20260507130056 66 32 6.0 12.0 0.00 0.00 0.00 84 1016.0
20260507124602 67 39 4.0 11.0 0.00 0.00 0.00 85 1015.5
20260507123058 67 53 5.0 11.0 0.00 0.00 0.00 85 1015.2
20260507121557 67 352 4.0 9.0 0.00 0.00 0.00 85 1014.9
20260507120054 67 32 4.0 10.0 0.00 0.00 0.00 86 1014.7
20260507114554 67 13 3.0 8.0 0.00 0.00 0.00 86 1014.6
20260507113128 67 22 3.0 6.0 0.00 0.00 0.00 86 1014.2
20260507111553 68 11 3.0 8.0 0.00 0.00 0.00 85 1014.2
20260507110053 68 11 4.0 10.0 0.00 0.00 0.00 85 1014.0